| time (UTC) | temp F | wind direction | speed MPH | gust MPH | rain 1hr in | rain 24hr in | rain mn in | humidity % | barometer mb |
| 20260505024509 | 68 | 133 | 5.0 | 8.0 | 0.00 | 0.00 | 0.00 | 56 | 1010.7 |
| 20260505023008 | 67 | 129 | 4.0 | 8.0 | 0.00 | 0.00 | 0.00 | 59 | 1010.7 |
| 20260505021508 | 67 | 136 | 2.0 | 6.0 | 0.00 | 0.00 | 0.00 | 62 | 1010.7 |
| 20260505020007 | 66 | 126 | 2.0 | 5.0 | 0.00 | 0.00 | 0.00 | 68 | 1010.5 |
| 20260505014513 | 65 | 117 | 2.0 | 4.0 | 0.00 | 0.00 | 0.00 | 69 | 1010.5 |
| 20260505013006 | 65 | 119 | 1.0 | 3.0 | 0.00 | 0.00 | 0.00 | 74 | 1010.5 |
| 20260505011509 | 65 | 127 | 1.0 | 4.0 | 0.00 | 0.00 | 0.00 | 74 | 1010.4 |
| 20260505010012 | 65 | 128 | 2.0 | 4.0 | 0.00 | 0.00 | 0.00 | 75 | 1010.4 |
| 20260505004505 | 65 | 126 | 2.0 | 4.0 | 0.00 | 0.00 | 0.00 | 71 | 1010.2 |
| 20260505003004 | 66 | 128 | 3.0 | 7.0 | 0.00 | 0.00 | 0.00 | 69 | 1009.9 |
| 20260505001503 | 67 | 115 | 3.0 | 8.0 | 0.00 | 0.00 | 0.00 | 65 | 1010.0 |
| 20260505000003 | 68 | 117 | 3.0 | 9.0 | 0.00 | 0.00 | 0.00 | 61 | 1010.0 |
| 20260504234501 | 69 | 129 | 1.0 | 5.0 | 0.00 | 0.00 | 0.00 | 57 | 1009.9 |
| 20260504233001 | 70 | 122 | 1.0 | 3.0 | 0.00 | 0.00 | 0.00 | 52 | 1009.8 |
| 20260504231500 | 71 | 126 | 1.0 | 4.0 | 0.00 | 0.00 | 0.00 | 51 | 1009.8 |
| 20260504230116 | 71 | 83 | 2.0 | 7.0 | 0.00 | 0.00 | 0.00 | 50 | 1009.7 |
| 20260504224626 | 72 | 123 | 2.0 | 8.0 | 0.00 | 0.00 | 0.00 | 49 | 1009.8 |
| 20260504223108 | 72 | 117 | 3.0 | 6.0 | 0.00 | 0.00 | 0.00 | 46 | 1009.9 |
| 20260504221558 | 73 | 119 | 1.0 | 6.0 | 0.00 | 0.00 | 0.00 | 45 | 1009.9 |
| 20260504220100 | 73 | 119 | 1.0 | 7.0 | 0.00 | 0.00 | 0.00 | 46 | 1009.9 |
| 20260504214557 | 73 | 113 | 3.0 | 8.0 | 0.00 | 0.00 | 0.00 | 45 | 1010.0 |
| 20260504213102 | 73 | 128 | 3.0 | 11.0 | 0.00 | 0.00 | 0.00 | 46 | 1009.9 |
| 20260504211600 | 74 | 111 | 6.0 | 15.0 | 0.00 | 0.00 | 0.00 | 34 | 1010.0 |
| 20260504204555 | 74 | 108 | 10.0 | 15.0 | 0.00 | 0.00 | 0.00 | 35 | 1009.9 |
| 20260504203053 | 73 | 126 | 4.0 | 9.0 | 0.00 | 0.00 | 0.00 | 36 | 1009.9 |
| 20260504201552 | 72 | 121 | 6.0 | 11.0 | 0.00 | 0.00 | 0.00 | 46 | 1010.2 |
| 20260504200100 | 72 | 106 | 4.0 | 13.0 | 0.00 | 0.00 | 0.00 | 43 | 1010.2 |
| 20260504194548 | 73 | 103 | 3.0 | 12.0 | 0.00 | 0.00 | 0.00 | 38 | 1010.3 |
| 20260504193049 | 73 | 119 | 6.0 | 10.0 | 0.00 | 0.00 | 0.00 | 41 | 1010.4 |
| 20260504191559 | 73 | 123 | 2.0 | 10.0 | 0.00 | 0.00 | 0.00 | 38 | 1010.5 |
| 20260504190042 | 73 | 125 | 3.0 | 15.0 | 0.00 | 0.00 | 0.00 | 36 | 1011.0 |
| 20260504184541 | 73 | 136 | 8.0 | 13.0 | 0.00 | 0.00 | 0.00 | 34 | 1011.1 |
| 20260504183038 | 73 | 113 | 4.0 | 9.0 | 0.00 | 0.00 | 0.00 | 35 | 1011.3 |
| 20260504181533 | 72 | 122 | 7.0 | 15.0 | 0.00 | 0.00 | 0.00 | 34 | 1011.4 |
| 20260504180029 | 72 | 115 | 4.0 | 7.0 | 0.00 | 0.00 | 0.00 | 40 | 1011.6 |
| 20260504174525 | 70 | 135 | 0.0 | 6.0 | 0.00 | 0.00 | 0.00 | 43 | 1011.6 |
| 20260504173022 | 69 | 145 | 1.0 | 3.0 | 0.00 | 0.00 | 0.00 | 55 | 1012.0 |
| 20260504171520 | 69 | 158 | 1.0 | 3.0 | 0.00 | 0.00 | 0.00 | 50 | 1012.2 |
| 20260504081557 | 54 | 125 | 5.0 | 9.0 | 0.00 | 0.00 | 0.00 | 74 | 1014.9 |
| 20260504044524 | 54 | 123 | 1.0 | 4.0 | 0.00 | 0.00 | 0.00 | 73 | 1015.3 |
| 20260504043024 | 53 | 123 | 1.0 | 4.0 | 0.00 | 0.00 | 0.00 | 74 | 1015.1 |
| 20260504041519 | 53 | 130 | 1.0 | 5.0 | 0.00 | 0.00 | 0.00 | 75 | 1015.3 |
| 20260504040017 | 52 | 124 | 2.0 | 4.0 | 0.00 | 0.00 | 0.00 | 74 | 1015.1 |
| 20260504034516 | 52 | 130 | 1.0 | 4.0 | 0.00 | 0.00 | 0.00 | 78 | 1015.1 |
| 20260504033016 | 52 | 130 | 2.0 | 3.0 | 0.00 | 0.00 | 0.00 | 78 | 1015.0 |
| 20260504031515 | 52 | 130 | 2.0 | 4.0 | 0.00 | 0.00 | 0.00 | 76 | 1014.9 |
| 20260504030016 | 52 | 130 | 2.0 | 4.0 | 0.00 | 0.00 | 0.00 | 74 | 1014.9 |